This is the latest recevied weather packets stored in our database for station/object KG7MRB. If no packets are shown the sender has not sent any weather packets the latest 10 day(s).
| Time | Temp. | Humidity | Pressure | Rain* | Wind** | Luminosity | Snow |
|---|---|---|---|---|---|---|---|
| 1777861574 | 24.44° C | 40% | 1027.9 hPa | 0 mm | - | 26 W/m² | - |
| 1777861270 | 25° C | 37% | 1027.9 hPa | 0 mm | - | 28 W/m² | - |
| 1777860968 | 25.56° C | 37% | 1028 hPa | 0 mm | - | 29 W/m² | - |
| 1777860665 | 25.56° C | 37% | 1028.1 hPa | 0 mm | - | 31 W/m² | - |
| 1777860362 | 25.56° C | 40% | 1027.9 hPa | 0 mm | - | 33 W/m² | - |
| 1777860058 | 25.56° C | 42% | 1028.2 hPa | 0 mm | - | 36 W/m² | - |
| 1777859754 | 25.56° C | 42% | 1028.2 hPa | 0 mm | - | 35 W/m² | - |
| 1777859450 | 25.56° C | 43% | 1028.1 hPa | 0 mm | - | 35 W/m² | - |
| 1777859147 | 26.11° C | 41% | 1028.1 hPa | 0 mm | - | 85 W/m² | - |
| 1777858844 | 26.11° C | 41% | 1028.2 hPa | 0 mm | - | 66 W/m² | - |
| 1777858541 | 26.11° C | 40% | 1028.1 hPa | 0 mm | - | 40 W/m² | - |
| 1777858238 | 26.11° C | 39% | 1028.1 hPa | 0 mm | - | 40 W/m² | - |
| 1777857936 | 26.11° C | 40% | 1028.2 hPa | 0 mm | - | 41 W/m² | - |
| 1777857634 | 26.67° C | 40% | 1028.2 hPa | 0 mm | - | 41 W/m² | - |
| 1777857330 | 26.67° C | 39% | 1028.3 hPa | 0 mm | - | 43 W/m² | - |
| 1777857026 | 26.67° C | 40% | 1028.5 hPa | 0 mm | - | 54 W/m² | - |
| 1777856722 | 26.67° C | 41% | 1028.7 hPa | 0 mm | - | 46 W/m² | - |
| 1777856418 | 26.67° C | 40% | 1028.5 hPa | 0 mm | - | 57 W/m² | - |
| 1777856115 | 26.67° C | 39% | 1028.5 hPa | 0 mm | - | 64 W/m² | - |
| 1777855813 | 27.22° C | 39% | 1028.4 hPa | 0 mm | - | 64 W/m² | - |
| 1777855510 | 27.22° C | 39% | 1028.6 hPa | 0 mm | - | 235 W/m² | - |
| 1777855207 | 27.22° C | 39% | 1028.5 hPa | 0 mm | - | 192 W/m² | - |
| 1777854903 | 27.22° C | 39% | 1028.6 hPa | 0 mm | - | 60 W/m² | - |
| 1777854600 | 27.22° C | 37% | 1028.7 hPa | 0 mm | - | 106 W/m² | - |
| 1777854297 | 27.22° C | 38% | 1028.7 hPa | 0 mm | - | 50 W/m² | - |
* Rain latest hour (hover to see other rain measurements)
** Current wind speed in m/s (hover to see current wind gust speed)